Location: Gro�sch�nbrunn
(49.5760°N, 11.8868°E)
Time: 12:28:53
(UTC+00:00)

Cosmos 1844 - Pass Details

Date: 18 September 2020
Orbit: 824 x 866 km, 70.9° (Epoch: 21 October)

Event Time Altitude Azimuth Distance (km) Brightness Sun altitude
Rises 19:27:03 0° 195° (SSW) 3,412 6.7 -20.7°
Reaches altitude 10° 19:29:31 10° 192° (SSW) 2,475 5.9 -21.1°
Maximum altitude 19:35:07 62° 113° (ESE) 953 3.6 -21.9°
Drops below altitude 10° 19:40:40 10° 34° (NE) 2,463 6.1 -22.6°
Sets 19:43:08 0° 32° (NNE) 3,395 6.9 -23.0°
